Tracking 21992 objects as of 26-Nov-2020
HD Live streaming from Space Station
objects crossing your sky now

USA 310

Track USA 310 now!
10-day predictions
USA 310 is classified as:


NORAD ID: 46918
Int'l Code: 2020-083A
Perigee: 11,038.7 km
Apogee: 11,076.3 km
Inclination: 58.5 °
Period: 381.6 minutes
Semi major axis: 17428 km
RCS: Unknown
Launch date: November 13, 2020
Source: United States (US)
Launch site: AIR FORCE EASTERN TEST RANGE (AFETR)
aabbcc
Your satellite tracking list
Your tracking list is empty




NASA's NSSDC Master Catalog

Two Line Element Set (TLE):
1 46918U 20083A   20329.96996487 0.00000000  00000-0  00000-0 0    08
2 46918  58.5338 292.6092 0010761 272.7848  87.2152  3.77322684    02
Source of the keplerian elements: McCants